sat.trackr.live / text

‹ back to catalog

STARLINK-37527

NORAD 68895 · 2026-097A

PAYLOAD ACTIVE UNKNOWN

§ Identity

Operator
Country
US
Launch date
2026-04-30
Launch site
AFWTR
Launch vehicle
Mass (kg)
RCS (m²)

Purposes: comms

External: N2YO · Heavens-Above · Gunter

§ Orbital elements

Epoch: 2026-05-25T04:17:59.753184Z

Period
93.11 min
Inclination
97.2854°
Eccentricity
0.0001501
Mean motion
15.46586917 rev/d
Perigee alt
425.7 km
Apogee alt
427.7 km
Semi-major
6,804.9 km
B*
-2.3925e-2
RAAN
340.9238°
Arg perigee
82.0733°
Mean anomaly
278.0687°
Rev number
395

§ Raw data

STARLINK-375271 68895U 26097A   26145.17916381 -.01077294  00000+0 -23925-1 0  99972 68895  97.2854 340.9238 0001501  82.0733 278.0687 15.46586917  3959

JSON: /api/v1/satellites/68895 · /tle

For live sub-satellite position, see the globe view (requires WebGL).

§ Visibility from observer

Set your observer location to see the next 7 days of passes ≥ 10°. The values pass through the URL so the page stays shareable.

No JS? Fill the form by hand. The geolocation button needs JavaScript.